sat.trackr.live / text

‹ back to catalog

FLOCK 4H-34

NORAD 66737 · 2025-276BZ

PAYLOAD ACTIVE UNKNOWN

§ Identity

Operator
Country
US
Launch date
2025-11-28
Launch site
AFWTR
Launch vehicle
Mass (kg)
RCS (m²)

Purposes: earth_obs

External: N2YO · Heavens-Above · Gunter

§ Orbital elements

Epoch: 2026-05-25T03:35:35.261952Z

Period
94.73 min
Inclination
97.4240°
Eccentricity
0.0003294
Mean motion
15.20171386 rev/d
Perigee alt
503.1 km
Apogee alt
507.6 km
Semi-major
6,883.5 km
B*
2.8709e-4
RAAN
219.3329°
Arg perigee
55.8247°
Mean anomaly
304.3300°
Rev number
2,618

§ Raw data

FLOCK 4H-341 66737U 25276BZ  26145.14971368  .00006147  00000+0  28709-3 0  99942 66737  97.4240 219.3329 0003294  55.8247 304.3300 15.20171386 26189

JSON: /api/v1/satellites/66737 · /tle

For live sub-satellite position, see the globe view (requires WebGL).

§ Visibility from observer

Set your observer location to see the next 7 days of passes ≥ 10°. The values pass through the URL so the page stays shareable.

No JS? Fill the form by hand. The geolocation button needs JavaScript.